スキッフ彗星

305P/Skiff (2024)

English version
Home page
Updated on September 4, 2024

---------------------------------------------------------------------

・ プロフィール

・ 写真集

・ 軌道要素

Epoch 2024 Nov. 26.0 TT = JDT 2460640.5
T 2024 Nov. 17.13433 TT                                 MPCW
q   1.4186005            (2000.0)            P               Q
n   0.09873291     Peri.  147.42651     +0.87709585     -0.44715099
a   4.6361922      Node   240.10630     +0.38587888     +0.87341822
e   0.6940160      Incl.   11.67134     +0.28600764     +0.19286423
P   9.98
From 509 observations 2004 Oct. 7-2015 Mar. 9, mean residual 0".8.
     Nongravitational parameters A1 = +0.06, A2 = -0.0171.

・ 星図

・ 光度変化

        m1 = 13.5 + 5 logΔ + 17.0 log r(t - 65)

---------------------------------------------------------------------

軌道要素はM.P.E.C. 2016-Q04に掲載されたものです。
星図はステラナビゲータ Ver.11 (アストロアーツ) で作成したものです。
光度グラフはComet for Windowsで作成したものです。

---------------------------------------------------------------------

Copyright(C) Seiichi Yoshida (comet@aerith.net). All rights reserved.